• Em Portugal
  • Lista de países
  • Para 7 dias
  • Temperatura da água
  • Mapas de satélite
  • Mapa do tempo
  • Widgets de tempo
  • user-avatar
    Iniciar Sessão

    Previsão horária em Semnan

    Hoje, 22 Janeiro, Segunda-feira

    Tempo Temperatura Precipitação Vento Pressão Humidade
    00:00 +5°C° 0 mm 0 m/s 679 mmHg 42%
    01:00 +5°C° 0 mm 0 m/s 679 mmHg 42%
    02:00 +5°C° 0 mm 0 m/s 679 mmHg 42%
    03:00 +5°C° 0 mm 0 m/s 679 mmHg 43%
    04:00 +5°C° 0 mm 1 m/s 679 mmHg 43%
    05:00 +5°C° 0 mm 1 m/s 679 mmHg 44%
    06:00 +5°C° 0 mm 1 m/s 679 mmHg 46%
    07:00 +5°C° 0 mm 1 m/s 679 mmHg 47%
    08:00 +7°C° 0 mm 1 m/s 680 mmHg 41%
    09:00 +9°C° 0 mm 1 m/s 680 mmHg 36%
    10:00 +11°C° 0 mm 1 m/s 681 mmHg 30%
    11:00 +12°C° 0 mm 1 m/s 681 mmHg 28%
    12:00 +13°C° 0 mm 1 m/s 680 mmHg 27%
    13:00 +14°C° 0 mm 1 m/s 680 mmHg 25%
    14:00 +14°C° 0 mm 1 m/s 679 mmHg 25%
    15:00 +14°C° 0 mm 1 m/s 679 mmHg 24%
    16:00 +14°C° 0 mm 1 m/s 679 mmHg 24%
    17:00 +13°C° 0 mm 1 m/s 678 mmHg 27%
    18:00 +12°C° 0 mm 1 m/s 678 mmHg 29%
    19:00 +11°C° 0 mm 1 m/s 678 mmHg 32%
    20:00 +9°C° 0 mm 2 m/s 677 mmHg 31%
    21:00 +9°C° 0 mm 2 m/s 677 mmHg 31%
    22:00 +9°C° 0 mm 2 m/s 677 mmHg 31%
    23:00 +8°C° 0 mm 2 m/s 677 mmHg 31%

    Amanhã, 23 Janeiro, Terça-feira

    Tempo Temperatura Precipitação Vento Pressão Humidade
    00:00 +8°C° 0 mm 2 m/s 676 mmHg 31%
    01:00 +8°C° 0 mm 2 m/s 676 mmHg 30%
    02:00 +7°C° 0 mm 2 m/s 676 mmHg 30%
    03:00 +7°C° 0 mm 2 m/s 676 mmHg 30%
    04:00 +8°C° 0 mm 1 m/s 675 mmHg 30%
    05:00 +8°C° 0 mm 1 m/s 675 mmHg 30%
    06:00 +7°C° 0 mm 1 m/s 675 mmHg 30%
    07:00 +7°C° 0 mm 1 m/s 675 mmHg 30%
    08:00 +9°C° 0 mm 1 m/s 676 mmHg 28%
    09:00 +10°C° 0 mm 1 m/s 676 mmHg 25%
    10:00 +12°C° 0 mm 1 m/s 677 mmHg 22%
    11:00 +13°C° 0 mm 2 m/s 677 mmHg 20%
    12:00 +14°C° 0 mm 2 m/s 677 mmHg 19%
    13:00 +15°C° 0 mm 2 m/s 676 mmHg 18%
    14:00 +15°C° 0 mm 2 m/s 676 mmHg 17%
    15:00 +16°C° 0 mm 3 m/s 676 mmHg 17%
    16:00 +16°C° 0 mm 3 m/s 676 mmHg 17%
    17:00 +15°C° 0 mm 2 m/s 676 mmHg 19%
    18:00 +13°C° 0 mm 2 m/s 676 mmHg 22%
    19:00 +11°C° 0 mm 1 m/s 675 mmHg 24%
    20:00 +11°C° 0 mm 1 m/s 675 mmHg 25%
    21:00 +10°C° 0 mm 1 m/s 675 mmHg 25%
    22:00 +10°C° 0 mm 1 m/s 675 mmHg 25%
    23:00 +9°C° 0 mm 1 m/s 675 mmHg 26%

    Depois de amanhã, 24 Janeiro, Quarta-feira

    Tempo Temperatura Precipitação Vento Pressão Humidade
    00:00 +9°C° 0 mm 1 m/s 675 mmHg 27%
    01:00 +8°C° 0 mm 1 m/s 675 mmHg 27%
    02:00 +9°C° 0 mm 1 m/s 675 mmHg 27%
    03:00 +9°C° 0 mm 1 m/s 675 mmHg 28%
    04:00 +8°C° 0 mm 2 m/s 675 mmHg 28%
    05:00 +9°C° 0 mm 1 m/s 675 mmHg 31%
    06:00 +8°C° 0 mm 1 m/s 675 mmHg 34%
    07:00 +8°C° 0 mm 1 m/s 675 mmHg 37%
    08:00 +9°C° 0 mm 1 m/s 676 mmHg 34%
    09:00 +10°C° 0 mm 2 m/s 677 mmHg 30%
    10:00 +13°C° 0 mm 2 m/s 678 mmHg 27%
    11:00 +13°C° 0 mm 3 m/s 678 mmHg 26%
    12:00 +14°C° 0 mm 5 m/s 678 mmHg 25%
    13:00 +16°C° 0 mm 6 m/s 678 mmHg 24%
    14:00 +16°C° 0 mm 6 m/s 678 mmHg 23%
    15:00 +16°C° 0 mm 6 m/s 678 mmHg 23%
    16:00 +16°C° 0 mm 5 m/s 678 mmHg 23%
    17:00 +14°C° 0 mm 4 m/s 678 mmHg 27%
    18:00 +12°C° 0 mm 3 m/s 678 mmHg 31%
    19:00 +12°C° 0 mm 2 m/s 678 mmHg 35%
    20:00 +10°C° 0 mm 2 m/s 678 mmHg 37%
    21:00 +10°C° 0 mm 2 m/s 679 mmHg 40%
    22:00 +9°C° 0 mm 2 m/s 679 mmHg 42%
    23:00 +9°C° 0 mm 2 m/s 679 mmHg 44%

    25 Janeiro, Quinta-feira

    Tempo Temperatura Precipitação Vento Pressão Humidade
    00:00 +8°C° 0 mm 2 m/s 679 mmHg 45%
    01:00 +8°C° 0 mm 2 m/s 679 mmHg 46%
    02:00 +8°C° 0 mm 2 m/s 679 mmHg 46%
    03:00 +8°C° 0 mm 2 m/s 679 mmHg 46%
    04:00 +7°C° 0 mm 2 m/s 679 mmHg 47%
    05:00 +7°C° 0 mm 2 m/s 679 mmHg 47%
    06:00 +7°C° 0 mm 2 m/s 680 mmHg 48%
    07:00 +7°C° 0 mm 2 m/s 680 mmHg 48%
    08:00 +8°C° 0 mm 2 m/s 681 mmHg 43%
    09:00 +10°C° 0 mm 2 m/s 681 mmHg 38%
    10:00 +12°C° 0 mm 2 m/s 682 mmHg 33%
    11:00 +13°C° 0 mm 2 m/s 682 mmHg 31%
    12:00 +14°C° 0 mm 2 m/s 682 mmHg 28%
    13:00 +15°C° 0 mm 2 m/s 682 mmHg 26%
    14:00 +15°C° 0 mm 2 m/s 681 mmHg 26%
    15:00 +14°C° 0 mm 3 m/s 681 mmHg 25%
    16:00 +14°C° 0 mm 3 m/s 681 mmHg 25%
    17:00 +14°C° 0 mm 2 m/s 681 mmHg 28%
    18:00 +13°C° 0 mm 2 m/s 681 mmHg 30%
    19:00 +12°C° 0 mm 2 m/s 681 mmHg 33%
    20:00 +10°C° 0 mm 2 m/s 681 mmHg 34%
    21:00 +9°C° 0 mm 2 m/s 681 mmHg 35%
    22:00 +9°C° 0 mm 2 m/s 681 mmHg 36%
    23:00 +9°C° 0 mm 2 m/s 681 mmHg 36%

    26 Janeiro, Sexta-feira

    Tempo Temperatura Precipitação Vento Pressão Humidade
    00:00 +8°C° 0 mm 2 m/s 681 mmHg 37%
    01:00 +8°C° 0 mm 2 m/s 681 mmHg 37%
    02:00 +8°C° 0 mm 2 m/s 681 mmHg 38%
    03:00 +7°C° 0 mm 2 m/s 681 mmHg 38%
    04:00 +7°C° 0 mm 2 m/s 680 mmHg 39%
    05:00 +7°C° 0 mm 2 m/s 680 mmHg 39%
    06:00 +7°C° 0 mm 2 m/s 681 mmHg 39%
    07:00 +7°C° 0 mm 2 m/s 681 mmHg 39%
    08:00 +8°C° 0 mm 2 m/s 681 mmHg 35%
    09:00 +10°C° 0 mm 2 m/s 681 mmHg 31%
    10:00 +12°C° 0 mm 1 m/s 682 mmHg 28%
    11:00 +13°C° 0 mm 2 m/s 681 mmHg 27%
    12:00 +14°C° 0 mm 2 m/s 681 mmHg 25%
    13:00 +14°C° 0 mm 3 m/s 681 mmHg 24%
    14:00 +14°C° 0 mm 3 m/s 680 mmHg 23%
    15:00 +16°C° 0 mm 3 m/s 680 mmHg 23%
    16:00 +16°C° 0 mm 3 m/s 679 mmHg 22%
    17:00 +14°C° 0 mm 3 m/s 679 mmHg 25%
    18:00 +13°C° 0 mm 3 m/s 679 mmHg 27%
    19:00 +13°C° 0 mm 2 m/s 679 mmHg 29%
    20:00 +13°C° 0 mm 2 m/s 679 mmHg 30%
    21:00 +12°C° 0 mm 2 m/s 679 mmHg 30%
    22:00 +12°C° 0 mm 2 m/s 678 mmHg 31%
    23:00 +12°C° 0 mm 2 m/s 678 mmHg 33%

    27 Janeiro, Sábado

    Tempo Temperatura Precipitação Vento Pressão Humidade
    00:00 +10°C° 0 mm 2 m/s 678 mmHg 34%
    01:00 +10°C° 0 mm 2 m/s 678 mmHg 35%
    02:00 +9°C° 0 mm 2 m/s 677 mmHg 36%
    03:00 +9°C° 0 mm 2 m/s 677 mmHg 37%
    04:00 +9°C° 0 mm 3 m/s 677 mmHg 38%
    05:00 +8°C° 0 mm 2 m/s 677 mmHg 39%
    06:00 +8°C° 0 mm 2 m/s 677 mmHg 40%
    07:00 +8°C° 0 mm 2 m/s 677 mmHg 41%
    08:00 +9°C° 0 mm 2 m/s 677 mmHg 38%
    09:00 +10°C° 0 mm 2 m/s 677 mmHg 35%
    10:00 +12°C° 0 mm 2 m/s 678 mmHg 32%
    11:00 +13°C° 0 mm 2 m/s 677 mmHg 31%
    12:00 +14°C° 0 mm 2 m/s 677 mmHg 29%
    13:00 +14°C° 0 mm 2 m/s 677 mmHg 27%
    14:00 +13°C° 0 mm 3 m/s 677 mmHg 29%
    15:00 +13°C° 0 mm 3 m/s 677 mmHg 30%
    16:00 +13°C° 0 mm 3 m/s 677 mmHg 31%
    17:00 +12°C° 0 mm 4 m/s 677 mmHg 36%
    18:00 +11°C° 0 mm 4 m/s 677 mmHg 40%
    19:00 +9°C° 0 mm 5 m/s 678 mmHg 44%
    20:00 +8°C° 0 mm 4 m/s 678 mmHg 46%
    21:00 +7°C° 0 mm 4 m/s 678 mmHg 48%
    22:00 +7°C° 0 mm 4 m/s 678 mmHg 49%
    23:00 +6°C° 0 mm 4 m/s 678 mmHg 50%
    Mostrar mais